Time,TemperatureF,DewpointF,PressureIn,WindDirection,WindDirectionDegrees,WindSpeedMPH,WindSpeedGustMPH,Humidity,HourlyPrecipIn,Conditions,Clouds,dailyrainin,SoftwareType,DateUTC
2013-01-05 00:00:00,32.0,22.3,29.89,South,180,3.0,9.0,67,0.00,,,0.00,Weather View 32 v70,2013-01-05 05:00:00,
2013-01-05 00:03:00,32.0,21.9,29.89,South,180,0.0,9.0,66,0.00,,,0.00,Weather View 32 v70,2013-01-05 05:03:00,
2013-01-05 00:08:00,31.0,21.3,29.89,SSW,202,0.0,9.0,67,0.00,,,0.00,Weather View 32 v70,2013-01-05 05:08:00,
2013-01-05 00:13:00,31.0,21.3,29.90,SSW,202,0.0,9.0,67,0.00,,,0.00,Weather View 32 v70,2013-01-05 05:13:00,
2013-01-05 00:18:00,31.0,21.3,29.90,SSW,202,3.0,9.0,67,0.00,,,0.00,Weather View 32 v70,2013-01-05 05:18:00,
2013-01-05 00:23:00,31.0,21.0,29.89,South,180,3.0,9.0,66,0.00,,,0.00,Weather View 32 v70,2013-01-05 05:23:00,
2013-01-05 00:28:00,31.0,21.0,29.89,South,180,3.0,9.0,66,0.00,,,0.00,Weather View 32 v70,2013-01-05 05:28:00,
2013-01-05 00:33:00,31.0,21.0,29.89,SSE,157,2.0,9.0,66,0.00,,,0.00,Weather View 32 v70,2013-01-05 05:33:00,
2013-01-05 00:38:00,31.0,21.3,29.89,NNE,22,0.0,7.0,67,0.00,,,0.00,Weather View 32 v70,2013-01-05 05:38:00,
2013-01-05 00:43:00,31.0,21.0,29.89,SSE,157,5.0,8.0,66,0.00,,,0.00,Weather View 32 v70,2013-01-05 05:43:00,
2013-01-05 00:48:00,31.0,21.0,29.89,SSW,202,2.0,8.0,66,0.00,,,0.00,Weather View 32 v70,2013-01-05 05:48:00,
2013-01-05 00:53:00,31.0,21.0,29.89,South,180,5.0,8.0,66,0.00,,,0.00,Weather View 32 v70,2013-01-05 05:53:00,
2013-01-05 00:58:00,31.0,21.3,29.89,WNW,292,4.0,8.0,67,0.00,,,0.00,Weather View 32 v70,2013-01-05 05:58:00,
2013-01-05 01:03:00,31.0,21.3,29.89,NW,315,4.0,8.0,67,0.00,,,0.00,Weather View 32 v70,2013-01-05 06:03:00,
2013-01-05 01:08:00,31.0,21.7,29.89,SE,135,2.0,8.0,68,0.00,,,0.00,Weather View 32 v70,2013-01-05 06:08:00,
2013-01-05 01:13:00,31.0,21.3,29.89,South,180,1.0,8.0,67,0.00,,,0.00,Weather View 32 v70,2013-01-05 06:13:00,
2013-01-05 01:18:00,31.0,21.3,29.89,SSE,157,2.0,8.0,67,0.00,,,0.00,Weather View 32 v70,2013-01-05 06:18:00,
2013-01-05 01:23:00,32.0,22.3,29.90,SSE,157,3.0,8.0,67,0.00,,,0.00,Weather View 32 v70,2013-01-05 06:23:00,
2013-01-05 01:28:00,31.0,21.7,29.90,NE,45,2.0,8.0,68,0.00,,,0.00,Weather View 32 v70,2013-01-05 06:28:00,
2013-01-05 01:33:00,32.0,22.6,29.91,SSW,202,3.0,8.0,68,0.00,,,0.00,Weather View 32 v70,2013-01-05 06:33:00,
2013-01-05 01:38:00,31.0,21.7,29.91,South,180,0.0,8.0,68,0.00,,,0.00,Weather View 32 v70,2013-01-05 06:38:00,
2013-01-05 01:43:00,32.0,22.6,29.91,SE,135,2.0,7.0,68,0.00,,,0.00,Weather View 32 v70,2013-01-05 06:43:00,
2013-01-05 01:48:00,31.0,21.7,29.91,SSE,157,2.0,7.0,68,0.00,,,0.00,Weather View 32 v70,2013-01-05 06:48:00,
2013-01-05 01:53:00,32.0,22.6,29.91,South,180,2.0,10.0,68,0.00,,,0.00,Weather View 32 v70,2013-01-05 06:53:00,
2013-01-05 01:58:00,31.0,21.7,29.91,South,180,3.0,10.0,68,0.00,,,0.00,Weather View 32 v70,2013-01-05 06:58:00,
2013-01-05 02:03:00,32.0,22.6,29.92,South,180,0.0,10.0,68,0.00,,,0.00,Weather View 32 v70,2013-01-05 07:03:00,
2013-01-05 02:08:00,32.0,22.6,29.92,SSE,157,2.0,10.0,68,0.00,,,0.00,Weather View 32 v70,2013-01-05 07:08:00,
2013-01-05 02:13:00,32.0,22.6,29.92,NNE,22,3.0,10.0,68,0.00,,,0.00,Weather View 32 v70,2013-01-05 07:13:00,
2013-01-05 02:18:00,32.0,22.6,29.92,South,180,2.0,10.0,68,0.00,,,0.00,Weather View 32 v70,2013-01-05 07:18:00,
2013-01-05 02:23:00,32.0,22.3,29.93,South,180,0.0,10.0,67,0.00,,,0.00,Weather View 32 v70,2013-01-05 07:23:00,
2013-01-05 02:28:00,32.0,22.3,29.93,SSW,202,3.0,10.0,67,0.00,,,0.00,Weather View 32 v70,2013-01-05 07:28:00,
2013-01-05 02:33:00,32.0,22.3,29.93,SSW,202,3.0,10.0,67,0.00,,,0.00,Weather View 32 v70,2013-01-05 07:33:00,
2013-01-05 02:38:00,32.0,22.3,29.93,WNW,292,4.0,10.0,67,0.00,,,0.00,Weather View 32 v70,2013-01-05 07:38:00,
2013-01-05 02:43:00,33.0,22.9,29.93,South,180,1.0,10.0,66,0.00,,,0.00,Weather View 32 v70,2013-01-05 07:43:00,
2013-01-05 02:48:00,33.0,22.5,29.93,NNE,22,1.0,10.0,65,0.00,,,0.00,Weather View 32 v70,2013-01-05 07:48:00,
2013-01-05 02:53:00,33.0,22.5,29.93,South,180,3.0,6.0,65,0.00,,,0.00,Weather View 32 v70,2013-01-05 07:53:00,
2013-01-05 02:58:00,33.0,22.5,29.93,SW,225,0.0,6.0,65,0.00,,,0.00,Weather View 32 v70,2013-01-05 07:58:00,
2013-01-05 03:03:00,33.0,22.9,29.92,SE,135,1.0,8.0,66,0.00,,,0.00,Weather View 32 v70,2013-01-05 08:03:00,
2013-01-05 03:08:00,33.0,22.9,29.92,SE,135,3.0,8.0,66,0.00,,,0.00,Weather View 32 v70,2013-01-05 08:08:00,
2013-01-05 03:13:00,33.0,23.2,29.93,South,180,4.0,8.0,67,0.00,,,0.00,Weather View 32 v70,2013-01-05 08:13:00,
2013-01-05 03:18:00,32.0,23.0,29.93,SE,135,2.0,8.0,69,0.00,,,0.00,Weather View 32 v70,2013-01-05 08:18:00,
2013-01-05 03:23:00,32.0,23.0,29.93,WSW,247,0.0,8.0,69,0.00,,,0.00,Weather View 32 v70,2013-01-05 08:23:00,
2013-01-05 03:28:00,32.0,23.3,29.93,SSW,202,1.0,8.0,70,0.00,,,0.00,Weather View 32 v70,2013-01-05 08:28:00,
2013-01-05 03:33:00,32.0,23.7,29.94,SSW,202,3.0,8.0,71,0.00,,,0.00,Weather View 32 v70,2013-01-05 08:33:00,
2013-01-05 03:38:00,32.0,24.0,29.94,South,180,3.0,8.0,72,0.00,,,0.00,Weather View 32 v70,2013-01-05 08:38:00,
2013-01-05 03:43:00,32.0,24.0,29.95,SSW,202,0.0,8.0,72,0.00,,,0.00,Weather View 32 v70,2013-01-05 08:43:00,
2013-01-05 03:48:00,31.0,23.0,29.95,SE,135,0.0,8.0,72,0.00,,,0.00,Weather View 32 v70,2013-01-05 08:48:00,
2013-01-05 03:53:00,31.0,23.4,29.95,SSW,202,2.0,8.0,73,0.00,,,0.00,Weather View 32 v70,2013-01-05 08:53:00,
2013-01-05 03:58:00,31.0,23.4,29.95,WNW,292,2.0,8.0,73,0.00,,,0.00,Weather View 32 v70,2013-01-05 08:58:00,
2013-01-05 04:03:00,32.0,24.0,29.95,SE,135,2.0,8.0,72,0.00,,,0.00,Weather View 32 v70,2013-01-05 09:03:00,
2013-01-05 04:08:00,31.0,23.0,29.95,SSE,157,3.0,7.0,72,0.00,,,0.00,Weather View 32 v70,2013-01-05 09:08:00,
2013-01-05 04:13:00,32.0,24.0,29.95,North,360,3.0,9.0,72,0.00,,,0.00,Weather View 32 v70,2013-01-05 09:13:00,
2013-01-05 04:18:00,32.0,24.0,29.95,South,180,1.0,9.0,72,0.00,,,0.00,Weather View 32 v70,2013-01-05 09:18:00,
2013-01-05 04:23:00,32.0,23.7,29.95,South,180,0.0,10.0,71,0.00,,,0.00,Weather View 32 v70,2013-01-05 09:23:00,
2013-01-05 04:28:00,32.0,24.0,29.95,NW,315,4.0,10.0,72,0.00,,,0.00,Weather View 32 v70,2013-01-05 09:28:00,
2013-01-05 04:33:00,32.0,24.0,29.95,South,180,3.0,10.0,72,0.00,,,0.00,Weather View 32 v70,2013-01-05 09:33:00,
2013-01-05 04:38:00,32.0,24.0,29.95,WNW,292,6.0,10.0,72,0.00,,,0.00,Weather View 32 v70,2013-01-05 09:38:00,
2013-01-05 04:43:00,32.0,24.0,29.95,SSW,202,4.0,10.0,72,0.00,,,0.00,Weather View 32 v70,2013-01-05 09:43:00,
2013-01-05 04:48:00,32.0,24.3,29.95,South,180,2.0,10.0,73,0.00,,,0.00,Weather View 32 v70,2013-01-05 09:48:00,
2013-01-05 04:53:00,32.0,24.3,29.96,North,360,0.0,10.0,73,0.00,,,0.00,Weather View 32 v70,2013-01-05 09:53:00,
2013-01-05 04:58:00,32.0,24.3,29.96,SE,135,1.0,10.0,73,0.00,,,0.00,Weather View 32 v70,2013-01-05 09:58:00,
2013-01-05 05:03:00,32.0,24.3,29.97,SSW,202,4.0,10.0,73,0.00,,,0.00,Weather View 32 v70,2013-01-05 10:03:00,
2013-01-05 05:08:00,32.0,24.3,29.97,SSW,202,4.0,10.0,73,0.00,,,0.00,Weather View 32 v70,2013-01-05 10:08:00,
2013-01-05 05:13:00,32.0,24.3,29.97,SSW,202,0.0,10.0,73,0.00,,,0.00,Weather View 32 v70,2013-01-05 10:13:00,
2013-01-05 05:18:00,31.0,23.7,29.97,South,180,3.0,10.0,74,0.00,,,0.00,Weather View 32 v70,2013-01-05 10:18:00,
2013-01-05 05:23:00,31.0,24.0,29.98,SSW,202,3.0,9.0,75,0.00,,,0.00,Weather View 32 v70,2013-01-05 10:23:00,
2013-01-05 05:29:00,31.0,24.0,29.98,NE,45,0.0,9.0,75,0.00,,,0.00,Weather View 32 v70,2013-01-05 10:29:00,
2013-01-05 05:34:00,31.0,24.3,29.99,SSW,202,1.0,9.0,76,0.00,,,0.00,Weather View 32 v70,2013-01-05 10:34:00,
2013-01-05 05:39:00,31.0,24.3,29.99,SW,225,6.0,9.0,76,0.00,,,0.00,Weather View 32 v70,2013-01-05 10:39:00,
2013-01-05 05:44:00,31.0,24.3,30.00,SSE,157,4.0,9.0,76,0.00,,,0.00,Weather View 32 v70,2013-01-05 10:44:00,
2013-01-05 05:49:00,31.0,24.3,30.00,SW,225,1.0,9.0,76,0.00,,,0.00,Weather View 32 v70,2013-01-05 10:49:00,
2013-01-05 05:54:00,30.0,23.7,30.01,SW,225,0.0,9.0,77,0.00,,,0.00,Weather View 32 v70,2013-01-05 10:54:00,
2013-01-05 05:59:00,30.0,23.7,30.01,South,180,0.0,9.0,77,0.00,,,0.00,Weather View 32 v70,2013-01-05 10:59:00,
2013-01-05 06:04:00,30.0,23.7,30.01,SSW,202,0.0,9.0,77,0.00,,,0.00,Weather View 32 v70,2013-01-05 11:04:00,
2013-01-05 06:09:00,30.0,23.7,30.01,SSW,202,2.0,9.0,77,0.00,,,0.00,Weather View 32 v70,2013-01-05 11:09:00,
2013-01-05 06:14:00,30.0,24.3,30.02,SSW,202,3.0,9.0,79,0.00,,,0.00,Weather View 32 v70,2013-01-05 11:14:00,
2013-01-05 06:19:00,29.0,23.3,30.02,SSW,202,3.0,9.0,79,0.00,,,0.00,Weather View 32 v70,2013-01-05 11:19:00,
2013-01-05 06:24:00,29.0,23.3,30.03,SSW,202,3.0,9.0,79,0.00,,,0.00,Weather View 32 v70,2013-01-05 11:24:00,
2013-01-05 06:29:00,29.0,23.3,30.03,South,180,0.0,9.0,79,0.00,,,0.00,Weather View 32 v70,2013-01-05 11:29:00,
2013-01-05 06:34:00,29.0,23.6,30.03,SSW,202,1.0,9.0,80,0.00,,,0.00,Weather View 32 v70,2013-01-05 11:34:00,
2013-01-05 06:39:00,29.0,23.6,30.03,South,180,2.0,9.0,80,0.00,,,0.00,Weather View 32 v70,2013-01-05 11:39:00,
2013-01-05 06:44:00,29.0,23.3,30.04,South,180,3.0,7.0,79,0.00,,,0.00,Weather View 32 v70,2013-01-05 11:44:00,
2013-01-05 06:49:00,29.0,23.6,30.04,SW,225,0.0,7.0,80,0.00,,,0.00,Weather View 32 v70,2013-01-05 11:49:00,
2013-01-05 06:54:00,29.0,24.2,30.05,South,180,3.0,6.0,82,0.00,,,0.00,Weather View 32 v70,2013-01-05 11:54:00,
2013-01-05 06:59:00,28.0,22.9,30.05,South,180,0.0,6.0,81,0.00,,,0.00,Weather View 32 v70,2013-01-05 11:59:00,
2013-01-05 07:04:00,28.0,22.6,30.05,South,180,3.0,6.0,80,0.00,,,0.00,Weather View 32 v70,2013-01-05 12:04:00,
2013-01-05 07:09:00,28.0,22.9,30.05,South,180,0.0,6.0,81,0.00,,,0.00,Weather View 32 v70,2013-01-05 12:09:00,
2013-01-05 07:14:00,28.0,23.2,30.07,WSW,247,0.0,6.0,82,0.00,,,0.00,Weather View 32 v70,2013-01-05 12:14:00,
2013-01-05 07:19:00,28.0,23.2,30.07,WSW,247,0.0,6.0,82,0.00,,,0.00,Weather View 32 v70,2013-01-05 12:19:00,
2013-01-05 07:24:00,28.0,23.2,30.07,NW,315,2.0,6.0,82,0.00,,,0.00,Weather View 32 v70,2013-01-05 12:24:00,
2013-01-05 07:29:00,28.0,23.2,30.07,NW,315,0.0,6.0,82,0.00,,,0.00,Weather View 32 v70,2013-01-05 12:29:00,
2013-01-05 07:34:00,28.0,23.5,30.07,SSW,202,1.0,6.0,83,0.00,,,0.00,Weather View 32 v70,2013-01-05 12:34:00,
2013-01-05 07:39:00,28.0,23.5,30.07,SSW,202,3.0,6.0,83,0.00,,,0.00,Weather View 32 v70,2013-01-05 12:39:00,
2013-01-05 07:44:00,28.0,23.2,30.07,SSW,202,1.0,6.0,82,0.00,,,0.00,Weather View 32 v70,2013-01-05 12:44:00,
2013-01-05 07:49:00,28.0,22.6,30.07,WSW,247,3.0,6.0,80,0.00,,,0.00,Weather View 32 v70,2013-01-05 12:49:00,
2013-01-05 07:54:00,28.0,22.3,30.08,South,180,3.0,6.0,79,0.00,,,0.00,Weather View 32 v70,2013-01-05 12:54:00,
2013-01-05 07:59:00,28.0,22.0,30.08,SSW,202,3.0,6.0,78,0.00,,,0.00,Weather View 32 v70,2013-01-05 12:59:00,
2013-01-05 08:05:00,29.0,22.7,30.08,NE,45,0.0,6.0,77,0.00,,,0.00,Weather View 32 v70,2013-01-05 13:05:00,
2013-01-05 08:10:00,29.0,21.4,30.08,North,360,4.0,6.0,73,0.00,,,0.00,Weather View 32 v70,2013-01-05 13:10:00,
2013-01-05 08:15:00,30.0,21.4,30.09,NNW,337,0.0,6.0,70,0.00,,,0.00,Weather View 32 v70,2013-01-05 13:15:00,
2013-01-05 08:20:00,30.0,20.7,30.09,South,180,0.0,6.0,68,0.00,,,0.00,Weather View 32 v70,2013-01-05 13:20:00,
2013-01-05 08:25:00,31.0,21.3,30.09,SSW,202,3.0,6.0,67,0.00,,,0.00,Weather View 32 v70,2013-01-05 13:25:00,
2013-01-05 08:30:00,31.0,21.7,30.09,South,180,3.0,6.0,68,0.00,,,0.00,Weather View 32 v70,2013-01-05 13:30:00,
2013-01-05 08:35:00,32.0,21.6,30.10,SSW,202,0.0,6.0,65,0.00,,,0.00,Weather View 32 v70,2013-01-05 13:35:00,
2013-01-05 08:40:00,32.0,21.6,30.10,South,180,0.0,6.0,65,0.00,,,0.00,Weather View 32 v70,2013-01-05 13:40:00,
2013-01-05 08:45:00,33.0,22.5,30.11,SSW,202,0.0,6.0,65,0.00,,,0.00,Weather View 32 v70,2013-01-05 13:45:00,
2013-01-05 08:50:00,33.0,22.5,30.11,South,180,1.0,6.0,65,0.00,,,0.00,Weather View 32 v70,2013-01-05 13:50:00,
2013-01-05 08:55:00,33.0,22.1,30.11,NNE,22,0.0,6.0,64,0.00,,,0.00,Weather View 32 v70,2013-01-05 13:55:00,
2013-01-05 09:00:00,34.0,23.1,30.11,SSW,202,0.0,6.0,64,0.00,,,0.00,Weather View 32 v70,2013-01-05 14:00:00,
2013-01-05 09:05:00,34.0,23.5,30.12,SE,135,2.0,6.0,65,0.00,,,0.00,Weather View 32 v70,2013-01-05 14:05:00,
2013-01-05 09:10:00,34.0,23.1,30.12,NW,315,0.0,6.0,64,0.00,,,0.00,Weather View 32 v70,2013-01-05 14:10:00,
2013-01-05 09:15:00,34.0,22.3,30.13,SSE,157,3.0,8.0,62,0.00,,,0.00,Weather View 32 v70,2013-01-05 14:15:00,
2013-01-05 09:20:00,35.0,23.3,30.13,WSW,247,2.0,8.0,62,0.00,,,0.00,Weather View 32 v70,2013-01-05 14:20:00,
2013-01-05 09:25:00,35.0,23.3,30.13,South,180,4.0,8.0,62,0.00,,,0.00,Weather View 32 v70,2013-01-05 14:25:00,
2013-01-05 09:30:00,35.0,22.9,30.13,South,180,4.0,8.0,61,0.00,,,0.00,Weather View 32 v70,2013-01-05 14:30:00,
2013-01-05 09:35:00,36.0,23.4,30.15,SSW,202,1.0,11.0,60,0.00,,,0.00,Weather View 32 v70,2013-01-05 14:35:00,
2013-01-05 09:40:00,36.0,23.4,30.15,WNW,292,6.0,11.0,60,0.00,,,0.00,Weather View 32 v70,2013-01-05 14:40:00,
2013-01-05 09:45:00,36.0,22.6,30.16,NW,315,1.0,11.0,58,0.00,,,0.00,Weather View 32 v70,2013-01-05 14:45:00,
2013-01-05 09:50:00,36.0,23.0,30.16,West,270,3.0,14.0,59,0.00,,,0.00,Weather View 32 v70,2013-01-05 14:50:00,
2013-01-05 09:55:00,37.0,23.2,30.17,WSW,247,3.0,14.0,57,0.00,,,0.00,Weather View 32 v70,2013-01-05 14:55:00,
2013-01-05 10:00:00,37.0,22.7,30.17,NNE,22,4.0,14.0,56,0.00,,,0.00,Weather View 32 v70,2013-01-05 15:00:00,
2013-01-05 10:05:00,37.0,23.2,30.17,WNW,292,5.0,14.0,57,0.00,,,0.00,Weather View 32 v70,2013-01-05 15:05:00,
2013-01-05 10:10:00,37.0,21.9,30.17,NW,315,13.0,14.0,54,0.00,,,0.00,Weather View 32 v70,2013-01-05 15:10:00,
2013-01-05 10:15:00,37.0,21.0,30.17,NW,315,8.0,23.0,52,0.00,,,0.00,Weather View 32 v70,2013-01-05 15:15:00,
2013-01-05 10:20:00,37.0,20.5,30.17,WNW,292,8.0,23.0,51,0.00,,,0.00,Weather View 32 v70,2013-01-05 15:20:00,
2013-01-05 10:25:00,38.0,21.0,30.17,NNW,337,8.0,23.0,50,0.00,,,0.00,Weather View 32 v70,2013-01-05 15:25:00,
2013-01-05 10:30:00,38.0,20.5,30.17,NW,315,5.0,23.0,49,0.00,,,0.00,Weather View 32 v70,2013-01-05 15:30:00,
2013-01-05 10:35:00,38.0,20.5,30.17,NNW,337,5.0,23.0,49,0.00,,,0.00,Weather View 32 v70,2013-01-05 15:35:00,
2013-01-05 10:40:00,38.0,19.5,30.17,NW,315,11.0,23.0,47,0.00,,,0.00,Weather View 32 v70,2013-01-05 15:40:00,
2013-01-05 10:45:00,38.0,20.5,30.17,South,180,4.0,23.0,49,0.00,,,0.00,Weather View 32 v70,2013-01-05 15:45:00,
2013-01-05 10:50:00,38.0,20.5,30.17,South,180,4.0,23.0,49,0.00,,,0.00,Weather View 32 v70,2013-01-05 15:50:00,
2013-01-05 10:55:00,38.0,20.0,30.18,WNW,292,8.0,23.0,48,0.00,,,0.00,Weather View 32 v70,2013-01-05 15:55:00,
2013-01-05 11:01:00,38.0,19.0,30.18,WNW,292,16.0,23.0,46,0.00,,,0.00,Weather View 32 v70,2013-01-05 16:01:00,
2013-01-05 11:06:00,38.0,19.0,30.17,WNW,292,5.0,23.0,46,0.00,,,0.00,Weather View 32 v70,2013-01-05 16:06:00,
2013-01-05 11:11:00,38.0,19.5,30.17,West,270,3.0,23.0,47,0.00,,,0.00,Weather View 32 v70,2013-01-05 16:11:00,
2013-01-05 11:16:00,38.0,19.0,30.17,WNW,292,6.0,23.0,46,0.00,,,0.00,Weather View 32 v70,2013-01-05 16:16:00,
2013-01-05 11:21:00,38.0,19.5,30.17,West,270,3.0,23.0,47,0.00,,,0.00,Weather View 32 v70,2013-01-05 16:21:00,
2013-01-05 11:26:00,38.0,19.0,30.18,WNW,292,13.0,23.0,46,0.00,,,0.00,Weather View 32 v70,2013-01-05 16:26:00,
2013-01-05 11:31:00,38.0,18.0,30.18,WNW,292,4.0,23.0,44,0.00,,,0.00,Weather View 32 v70,2013-01-05 16:31:00,
2013-01-05 11:36:00,38.0,18.0,30.18,NW,315,6.0,23.0,44,0.00,,,0.00,Weather View 32 v70,2013-01-05 16:36:00,
2013-01-05 11:41:00,38.0,17.5,30.18,NW,315,3.0,23.0,43,0.00,,,0.00,Weather View 32 v70,2013-01-05 16:41:00,
2013-01-05 11:46:00,38.0,18.0,30.18,NNE,22,0.0,23.0,44,0.00,,,0.00,Weather View 32 v70,2013-01-05 16:46:00,
2013-01-05 11:51:00,38.0,17.5,30.18,NW,315,10.0,23.0,43,0.00,,,0.00,Weather View 32 v70,2013-01-05 16:51:00,
2013-01-05 11:56:00,38.0,18.0,30.19,West,270,3.0,23.0,44,0.00,,,0.00,Weather View 32 v70,2013-01-05 16:56:00,
2013-01-05 12:01:00,38.0,18.0,30.19,WNW,292,5.0,25.0,44,0.00,,,0.00,Weather View 32 v70,2013-01-05 17:01:00,
2013-01-05 12:06:00,38.0,18.0,30.19,WNW,292,2.0,25.0,44,0.01,,,0.01,Weather View 32 v70,2013-01-05 17:06:00,
2013-01-05 12:11:00,38.0,17.5,30.19,NW,315,9.0,29.0,43,0.01,,,0.01,Weather View 32 v70,2013-01-05 17:11:00,
2013-01-05 12:16:00,39.0,18.9,30.20,NW,315,9.0,29.0,44,0.01,,,0.01,Weather View 32 v70,2013-01-05 17:16:00,
2013-01-05 12:21:00,39.0,17.8,30.20,North,360,6.0,29.0,42,0.01,,,0.01,Weather View 32 v70,2013-01-05 17:21:00,
2013-01-05 12:26:00,39.0,17.8,30.19,NW,315,8.0,29.0,42,0.01,,,0.01,Weather View 32 v70,2013-01-05 17:26:00,
2013-01-05 12:31:00,39.0,17.8,30.19,NW,315,6.0,29.0,42,0.01,,,0.01,Weather View 32 v70,2013-01-05 17:31:00,
2013-01-05 12:36:00,39.0,17.8,30.19,WNW,292,7.0,29.0,42,0.01,,,0.01,Weather View 32 v70,2013-01-05 17:36:00,
2013-01-05 12:41:00,39.0,17.3,30.19,NW,315,6.0,29.0,41,0.01,,,0.01,Weather View 32 v70,2013-01-05 17:41:00,
2013-01-05 12:46:00,39.0,17.8,30.19,NW,315,1.0,29.0,42,0.01,,,0.01,Weather View 32 v70,2013-01-05 17:46:00,
2013-01-05 12:51:00,39.0,17.8,30.19,North,360,0.0,29.0,42,0.01,,,0.01,Weather View 32 v70,2013-01-05 17:51:00,
2013-01-05 12:56:00,39.0,17.3,30.19,NNW,337,5.0,29.0,41,0.01,,,0.01,Weather View 32 v70,2013-01-05 17:56:00,
2013-01-05 13:01:00,39.0,17.8,30.19,SE,135,1.0,29.0,42,0.01,,,0.01,Weather View 32 v70,2013-01-05 18:01:00,
2013-01-05 13:06:00,39.0,16.7,30.19,WNW,292,7.0,29.0,40,0.00,,,0.01,Weather View 32 v70,2013-01-05 18:06:00,
2013-01-05 13:11:00,39.0,16.1,30.19,WNW,292,5.0,26.0,39,0.00,,,0.01,Weather View 32 v70,2013-01-05 18:11:00,
2013-01-05 13:16:00,39.0,16.1,30.19,NW,315,7.0,17.0,39,0.00,,,0.01,Weather View 32 v70,2013-01-05 18:16:00,
2013-01-05 13:21:00,39.0,16.7,30.19,WNW,292,6.0,17.0,40,0.00,,,0.01,Weather View 32 v70,2013-01-05 18:21:00,
2013-01-05 13:26:00,39.0,16.7,30.20,NW,315,5.0,17.0,40,0.00,,,0.01,Weather View 32 v70,2013-01-05 18:26:00,
2013-01-05 13:32:00,39.0,16.7,30.20,NW,315,7.0,17.0,40,0.00,,,0.01,Weather View 32 v70,2013-01-05 18:32:00,
2013-01-05 13:37:00,39.0,16.7,30.19,WNW,292,7.0,17.0,40,0.00,,,0.01,Weather View 32 v70,2013-01-05 18:37:00,
2013-01-05 13:42:00,39.0,15.5,30.19,WNW,292,10.0,16.0,38,0.00,,,0.01,Weather View 32 v70,2013-01-05 18:42:00,
2013-01-05 13:47:00,39.0,16.1,30.19,WNW,292,6.0,17.0,39,0.00,,,0.01,Weather View 32 v70,2013-01-05 18:47:00,
2013-01-05 13:52:00,39.0,16.1,30.19,NW,315,5.0,17.0,39,0.00,,,0.01,Weather View 32 v70,2013-01-05 18:52:00,
2013-01-05 13:57:00,39.0,17.8,30.20,SW,225,2.0,22.0,42,0.00,,,0.01,Weather View 32 v70,2013-01-05 18:57:00,
2013-01-05 14:02:00,39.0,17.3,30.20,WNW,292,19.0,22.0,41,0.00,,,0.01,Weather View 32 v70,2013-01-05 19:02:00,
2013-01-05 14:07:00,39.0,17.3,30.21,NNW,337,4.0,22.0,41,0.00,,,0.01,Weather View 32 v70,2013-01-05 19:07:00,
2013-01-05 14:12:00,39.0,17.3,30.21,NW,315,7.0,22.0,41,0.00,,,0.01,Weather View 32 v70,2013-01-05 19:12:00,
2013-01-05 14:17:00,39.0,17.8,30.21,NW,315,8.0,22.0,42,0.00,,,0.01,Weather View 32 v70,2013-01-05 19:17:00,
2013-01-05 14:22:00,39.0,17.3,30.21,NW,315,7.0,22.0,41,0.00,,,0.01,Weather View 32 v70,2013-01-05 19:22:00,
2013-01-05 14:27:00,38.0,16.4,30.21,NNE,22,3.0,22.0,41,0.00,,,0.01,Weather View 32 v70,2013-01-05 19:27:00,
2013-01-05 14:32:00,38.0,16.4,30.21,NW,315,4.0,22.0,41,0.00,,,0.01,Weather View 32 v70,2013-01-05 19:32:00,
2013-01-05 14:37:00,38.0,16.4,30.21,NNW,337,6.0,22.0,41,0.00,,,0.01,Weather View 32 v70,2013-01-05 19:37:00,
2013-01-05 14:42:00,38.0,16.4,30.21,North,360,5.0,22.0,41,0.00,,,0.01,Weather View 32 v70,2013-01-05 19:42:00,
2013-01-05 14:47:00,38.0,16.4,30.20,NW,315,10.0,22.0,41,0.00,,,0.01,Weather View 32 v70,2013-01-05 19:47:00,
2013-01-05 14:52:00,38.0,16.4,30.20,NW,315,7.0,22.0,41,0.00,,,0.01,Weather View 32 v70,2013-01-05 19:52:00,
2013-01-05 14:57:00,38.0,15.8,30.21,North,360,7.0,19.0,40,0.00,,,0.01,Weather View 32 v70,2013-01-05 19:57:00,
2013-01-05 15:02:00,38.0,16.4,30.21,NW,315,6.0,19.0,41,0.00,,,0.01,Weather View 32 v70,2013-01-05 20:02:00,
2013-01-05 15:07:00,38.0,16.4,30.21,North,360,0.0,18.0,41,0.00,,,0.01,Weather View 32 v70,2013-01-05 20:07:00,
2013-01-05 15:12:00,38.0,15.8,30.21,NW,315,1.0,18.0,40,0.00,,,0.01,Weather View 32 v70,2013-01-05 20:12:00,
2013-01-05 15:17:00,38.0,15.8,30.21,North,360,7.0,18.0,40,0.00,,,0.01,Weather View 32 v70,2013-01-05 20:17:00,
2013-01-05 15:22:00,37.0,15.5,30.21,NNW,337,3.0,18.0,41,0.00,,,0.01,Weather View 32 v70,2013-01-05 20:22:00,
2013-01-05 15:27:00,37.0,15.5,30.23,NW,315,4.0,18.0,41,0.00,,,0.01,Weather View 32 v70,2013-01-05 20:27:00,
2013-01-05 15:32:00,37.0,15.5,30.23,NNW,337,6.0,18.0,41,0.00,,,0.01,Weather View 32 v70,2013-01-05 20:32:00,
2013-01-05 15:37:00,37.0,15.5,30.23,NNW,337,6.0,18.0,41,0.00,,,0.01,Weather View 32 v70,2013-01-05 20:37:00,
2013-01-05 15:42:00,37.0,15.5,30.23,NNW,337,8.0,18.0,41,0.00,,,0.01,Weather View 32 v70,2013-01-05 20:42:00,
2013-01-05 15:47:00,37.0,15.5,30.23,North,360,2.0,15.0,41,0.00,,,0.01,Weather View 32 v70,2013-01-05 20:47:00,
2013-01-05 15:52:00,37.0,15.5,30.23,NNW,337,5.0,15.0,41,0.00,,,0.01,Weather View 32 v70,2013-01-05 20:52:00,
2013-01-05 15:57:00,37.0,16.0,30.23,NNW,337,3.0,14.0,42,0.00,,,0.01,Weather View 32 v70,2013-01-05 20:57:00,
2013-01-05 16:02:00,37.0,16.0,30.24,NNW,337,2.0,14.0,42,0.00,,,0.01,Weather View 32 v70,2013-01-05 21:02:00,
2013-01-05 16:07:00,36.0,15.1,30.24,NE,45,3.0,14.0,42,0.00,,,0.01,Weather View 32 v70,2013-01-05 21:07:00,
2013-01-05 16:12:00,36.0,14.6,30.24,NNW,337,6.0,14.0,41,0.00,,,0.01,Weather View 32 v70,2013-01-05 21:12:00,
2013-01-05 16:17:00,36.0,15.1,30.24,NNW,337,4.0,14.0,42,0.00,,,0.01,Weather View 32 v70,2013-01-05 21:17:00,
2013-01-05 16:23:00,36.0,15.1,30.26,NW,315,5.0,14.0,42,0.00,,,0.01,Weather View 32 v70,2013-01-05 21:23:00,
2013-01-05 16:28:00,36.0,16.2,30.26,NNE,22,4.0,14.0,44,0.00,,,0.01,Weather View 32 v70,2013-01-05 21:28:00,
2013-01-05 16:33:00,36.0,16.2,30.27,NNW,337,1.0,14.0,44,0.00,,,0.01,Weather View 32 v70,2013-01-05 21:33:00,
2013-01-05 16:38:00,35.0,15.8,30.27,NW,315,3.0,14.0,45,0.00,,,0.01,Weather View 32 v70,2013-01-05 21:38:00,
2013-01-05 16:43:00,35.0,16.3,30.27,NW,315,4.0,10.0,46,0.00,,,0.01,Weather View 32 v70,2013-01-05 21:43:00,
2013-01-05 16:48:00,35.0,16.3,30.27,NW,315,3.0,10.0,46,0.00,,,0.01,Weather View 32 v70,2013-01-05 21:48:00,
2013-01-05 16:53:00,34.0,15.9,30.28,NW,315,3.0,9.0,47,0.00,,,0.01,Weather View 32 v70,2013-01-05 21:53:00,
2013-01-05 16:58:00,34.0,15.9,30.28,NE,45,3.0,9.0,47,0.00,,,0.01,Weather View 32 v70,2013-01-05 21:58:00,
2013-01-05 17:03:00,34.0,16.4,30.29,North,360,0.0,9.0,48,0.00,,,0.01,Weather View 32 v70,2013-01-05 22:03:00,
2013-01-05 17:08:00,34.0,16.8,30.29,NW,315,0.0,9.0,49,0.00,,,0.01,Weather View 32 v70,2013-01-05 22:08:00,
2013-01-05 17:13:00,33.0,16.8,30.29,NW,315,2.0,9.0,51,0.00,,,0.01,Weather View 32 v70,2013-01-05 22:13:00,
2013-01-05 17:18:00,33.0,18.2,30.29,NW,315,0.0,8.0,54,0.00,,,0.01,Weather View 32 v70,2013-01-05 22:18:00,
2013-01-05 17:23:00,33.0,18.2,30.29,NW,315,0.0,7.0,54,0.00,,,0.01,Weather View 32 v70,2013-01-05 22:23:00,
2013-01-05 17:28:00,32.0,17.6,30.29,NW,315,0.0,7.0,55,0.00,,,0.01,Weather View 32 v70,2013-01-05 22:28:00,
2013-01-05 17:33:00,32.0,17.6,30.29,NW,315,0.0,6.0,55,0.00,,,0.01,Weather View 32 v70,2013-01-05 22:33:00,
2013-01-05 17:38:00,31.0,18.3,30.29,NW,315,2.0,6.0,59,0.00,,,0.01,Weather View 32 v70,2013-01-05 22:38:00,
2013-01-05 17:43:00,31.0,18.7,30.30,NW,315,0.0,6.0,60,0.00,,,0.01,Weather View 32 v70,2013-01-05 22:43:00,
2013-01-05 17:48:00,30.0,17.8,30.30,NW,315,0.0,6.0,60,0.00,,,0.01,Weather View 32 v70,2013-01-05 22:48:00,
2013-01-05 17:53:00,30.0,18.2,30.29,WNW,292,0.0,6.0,61,0.00,,,0.01,Weather View 32 v70,2013-01-05 22:53:00,
2013-01-05 17:58:00,30.0,18.9,30.29,WNW,292,0.0,5.0,63,0.00,,,0.01,Weather View 32 v70,2013-01-05 22:58:00,
2013-01-05 18:03:00,30.0,19.7,30.31,WNW,292,0.0,4.0,65,0.00,,,0.01,Weather View 32 v70,2013-01-05 23:03:00,
2013-01-05 18:08:00,29.0,18.7,30.31,WNW,292,0.0,4.0,65,0.00,,,0.01,Weather View 32 v70,2013-01-05 23:08:00,
2013-01-05 18:13:00,29.0,18.7,30.31,WNW,292,0.0,4.0,65,0.00,,,0.01,Weather View 32 v70,2013-01-05 23:13:00,
2013-01-05 18:18:00,28.0,18.5,30.31,WNW,292,0.0,4.0,67,0.00,,,0.01,Weather View 32 v70,2013-01-05 23:18:00,
2013-01-05 18:23:00,28.0,20.1,30.32,WNW,292,0.0,4.0,72,0.00,,,0.01,Weather View 32 v70,2013-01-05 23:23:00,
2013-01-05 18:28:00,28.0,20.5,30.32,SE,135,0.0,5.0,73,0.00,,,0.01,Weather View 32 v70,2013-01-05 23:28:00,
2013-01-05 18:33:00,27.0,18.9,30.32,SE,135,0.0,5.0,71,0.00,,,0.01,Weather View 32 v70,2013-01-05 23:33:00,
2013-01-05 18:38:00,27.0,19.5,30.32,SE,135,0.0,5.0,73,0.00,,,0.01,Weather View 32 v70,2013-01-05 23:38:00,
2013-01-05 18:43:00,27.0,20.8,30.33,SE,135,4.0,5.0,77,0.00,,,0.01,Weather View 32 v70,2013-01-05 23:43:00,
2013-01-05 18:48:00,26.0,20.4,30.33,SE,135,0.0,5.0,79,0.00,,,0.01,Weather View 32 v70,2013-01-05 23:48:00,
2013-01-05 18:53:00,26.0,20.4,30.33,SE,135,0.0,5.0,79,0.00,,,0.01,Weather View 32 v70,2013-01-05 23:53:00,
2013-01-05 18:58:00,26.0,20.4,30.33,SE,135,0.0,5.0,79,0.00,,,0.01,Weather View 32 v70,2013-01-05 23:58:00,
2013-01-05 19:03:00,26.0,21.0,30.33,SE,135,5.0,6.0,81,0.00,,,0.01,Weather View 32 v70,2013-01-06 00:03:00,
2013-01-05 19:08:00,25.0,20.0,30.33,SE,135,2.0,6.0,81,0.00,,,0.01,Weather View 32 v70,2013-01-06 00:08:00,
2013-01-05 19:13:00,25.0,19.7,30.34,NW,315,5.0,6.0,80,0.00,,,0.01,Weather View 32 v70,2013-01-06 00:13:00,
2013-01-05 19:18:00,25.0,19.4,30.34,NW,315,0.0,6.0,79,0.00,,,0.01,Weather View 32 v70,2013-01-06 00:18:00,
2013-01-05 19:23:00,25.0,20.6,30.34,SE,135,5.0,7.0,83,0.00,,,0.01,Weather View 32 v70,2013-01-06 00:23:00,
2013-01-05 19:28:00,25.0,20.3,30.34,SE,135,0.0,7.0,82,0.00,,,0.01,Weather View 32 v70,2013-01-06 00:28:00,
2013-01-05 19:33:00,25.0,20.0,30.34,NNW,337,3.0,7.0,81,0.00,,,0.01,Weather View 32 v70,2013-01-06 00:33:00,
2013-01-05 19:38:00,24.0,19.0,30.34,NNW,337,0.0,7.0,81,0.00,,,0.01,Weather View 32 v70,2013-01-06 00:38:00,
2013-01-05 19:43:00,25.0,20.6,30.34,NNW,337,0.0,7.0,83,0.00,,,0.01,Weather View 32 v70,2013-01-06 00:43:00,
2013-01-05 19:48:00,24.0,19.6,30.34,NNW,337,0.0,7.0,83,0.00,,,0.01,Weather View 32 v70,2013-01-06 00:48:00,
2013-01-05 19:53:00,24.0,19.6,30.34,NE,45,0.0,7.0,83,0.00,,,0.01,Weather View 32 v70,2013-01-06 00:53:00,
2013-01-05 19:58:00,24.0,19.3,30.34,NE,45,0.0,7.0,82,0.00,,,0.01,Weather View 32 v70,2013-01-06 00:58:00,
2013-01-05 20:03:00,24.0,19.6,30.33,SE,135,0.0,7.0,83,0.00,,,0.01,Weather View 32 v70,2013-01-06 01:03:00,
2013-01-05 20:08:00,24.0,19.9,30.33,NW,315,0.0,7.0,84,0.00,,,0.01,Weather View 32 v70,2013-01-06 01:08:00,
2013-01-05 20:13:00,24.0,20.4,30.33,SSE,157,2.0,7.0,86,0.00,,,0.01,Weather View 32 v70,2013-01-06 01:13:00,
2013-01-05 20:18:00,23.0,19.4,30.33,SSE,157,0.0,7.0,86,0.00,,,0.01,Weather View 32 v70,2013-01-06 01:18:00,
2013-01-05 20:23:00,23.0,19.2,30.32,SSE,157,0.0,7.0,85,0.00,,,0.01,Weather View 32 v70,2013-01-06 01:23:00,
2013-01-05 20:28:00,23.0,20.5,30.32,SSE,157,1.0,5.0,90,0.00,,,0.01,Weather View 32 v70,2013-01-06 01:28:00,
2013-01-05 20:33:00,23.0,20.2,30.32,SSE,157,0.0,5.0,89,0.00,,,0.01,Weather View 32 v70,2013-01-06 01:33:00,
2013-01-05 20:38:00,23.0,20.5,30.32,SSE,157,2.0,4.0,90,0.00,,,0.01,Weather View 32 v70,2013-01-06 01:38:00,
2013-01-05 20:43:00,23.0,20.8,30.34,SSE,157,0.0,4.0,91,0.00,,,0.01,Weather View 32 v70,2013-01-06 01:43:00,
2013-01-05 20:48:00,23.0,20.5,30.34,NW,315,3.0,4.0,90,0.00,,,0.01,Weather View 32 v70,2013-01-06 01:48:00,
2013-01-05 20:53:00,23.0,20.2,30.33,NW,315,0.0,4.0,89,0.00,,,0.01,Weather View 32 v70,2013-01-06 01:53:00,
2013-01-05 20:58:00,23.0,20.2,30.33,NW,315,0.0,4.0,89,0.00,,,0.01,Weather View 32 v70,2013-01-06 01:58:00,
2013-01-05 21:03:00,23.0,21.0,30.33,SE,135,0.0,5.0,92,0.00,,,0.01,Weather View 32 v70,2013-01-06 02:03:00,
2013-01-05 21:08:00,23.0,21.0,30.33,SE,135,0.0,5.0,92,0.00,,,0.01,Weather View 32 v70,2013-01-06 02:08:00,
2013-01-05 21:13:00,23.0,21.0,30.33,SE,135,1.0,5.0,92,0.00,,,0.01,Weather View 32 v70,2013-01-06 02:13:00,
2013-01-05 21:18:00,22.0,20.0,30.33,SE,135,0.0,5.0,92,0.00,,,0.01,Weather View 32 v70,2013-01-06 02:18:00,
2013-01-05 21:23:00,22.0,20.0,30.32,SE,135,0.0,5.0,92,0.00,,,0.01,Weather View 32 v70,2013-01-06 02:23:00,
2013-01-05 21:28:00,22.0,20.8,30.32,SE,135,2.0,5.0,95,0.00,,,0.01,Weather View 32 v70,2013-01-06 02:28:00,
2013-01-05 21:33:00,22.0,20.5,30.33,SE,135,0.0,5.0,94,0.00,,,0.01,Weather View 32 v70,2013-01-06 02:33:00,
2013-01-05 21:38:00,22.0,20.5,30.33,SE,135,0.0,5.0,94,0.00,,,0.01,Weather View 32 v70,2013-01-06 02:38:00,
2013-01-05 21:43:00,22.0,20.8,30.33,SE,135,2.0,5.0,95,0.00,,,0.01,Weather View 32 v70,2013-01-06 02:43:00,
2013-01-05 21:48:00,22.0,20.8,30.33,SE,135,1.0,5.0,95,0.00,,,0.01,Weather View 32 v70,2013-01-06 02:48:00,
2013-01-05 21:53:00,21.0,19.8,30.33,SE,135,0.0,5.0,95,0.00,,,0.01,Weather View 32 v70,2013-01-06 02:53:00,
2013-01-05 21:58:00,21.0,19.8,30.33,SE,135,0.0,5.0,95,0.00,,,0.01,Weather View 32 v70,2013-01-06 02:58:00,
2013-01-05 22:03:00,21.0,19.8,30.32,SE,135,0.0,4.0,95,0.00,,,0.01,Weather View 32 v70,2013-01-06 03:03:00,
2013-01-05 22:08:00,21.0,20.5,30.32,SE,135,3.0,4.0,98,0.00,,,0.01,Weather View 32 v70,2013-01-06 03:08:00,
2013-01-05 22:13:00,21.0,20.3,30.33,SE,135,0.0,4.0,97,0.00,,,0.01,Weather View 32 v70,2013-01-06 03:13:00,
2013-01-05 22:18:00,21.0,20.3,30.33,NW,315,0.0,5.0,97,0.00,,,0.01,Weather View 32 v70,2013-01-06 03:18:00,
2013-01-05 22:23:00,21.0,20.5,30.33,South,180,3.0,5.0,98,0.00,,,0.01,Weather View 32 v70,2013-01-06 03:23:00,
2013-01-05 22:28:00,20.0,19.5,30.33,South,180,0.0,5.0,98,0.00,,,0.01,Weather View 32 v70,2013-01-06 03:28:00,
2013-01-05 22:33:00,20.0,19.5,30.34,South,180,3.0,5.0,98,0.00,,,0.01,Weather View 32 v70,2013-01-06 03:33:00,
2013-01-05 22:38:00,20.0,19.5,30.34,South,180,0.0,5.0,98,0.00,,,0.01,Weather View 32 v70,2013-01-06 03:38:00,
2013-01-05 22:43:00,20.0,19.3,30.33,South,180,0.0,5.0,97,0.00,,,0.01,Weather View 32 v70,2013-01-06 03:43:00,
2013-01-05 22:48:00,20.0,19.5,30.33,South,180,0.0,5.0,98,0.00,,,0.01,Weather View 32 v70,2013-01-06 03:48:00,
2013-01-05 22:53:00,20.0,20.0,30.34,South,180,2.0,5.0,100,0.00,,,0.01,Weather View 32 v70,2013-01-06 03:53:00,
2013-01-05 22:58:00,19.0,19.0,30.34,South,180,2.0,5.0,100,0.00,,,0.01,Weather View 32 v70,2013-01-06 03:58:00,
2013-01-05 23:03:00,19.0,19.0,30.33,South,180,0.0,5.0,100,0.00,,,0.01,Weather View 32 v70,2013-01-06 04:03:00,
2013-01-05 23:08:00,19.0,19.0,30.33,South,180,3.0,5.0,100,0.00,,,0.01,Weather View 32 v70,2013-01-06 04:08:00,
2013-01-05 23:13:00,19.0,19.0,30.32,South,180,3.0,5.0,100,0.00,,,0.01,Weather View 32 v70,2013-01-06 04:13:00,
2013-01-05 23:18:00,19.0,19.0,30.32,South,180,0.0,4.0,100,0.00,,,0.01,Weather View 32 v70,2013-01-06 04:18:00,
2013-01-05 23:23:00,19.0,19.0,30.31,South,180,2.0,4.0,100,0.00,,,0.01,Weather View 32 v70,2013-01-06 04:23:00,
2013-01-05 23:28:00,19.0,19.0,30.31,South,180,0.0,4.0,100,0.00,,,0.01,Weather View 32 v70,2013-01-06 04:28:00,
2013-01-05 23:33:00,19.0,19.0,30.30,South,180,3.0,4.0,100,0.00,,,0.01,Weather View 32 v70,2013-01-06 04:33:00,
2013-01-05 23:38:00,19.0,19.0,30.30,South,180,0.0,4.0,100,0.00,,,0.01,Weather View 32 v70,2013-01-06 04:38:00,
2013-01-05 23:43:00,19.0,19.0,30.29,South,180,0.0,4.0,100,0.00,,,0.01,Weather View 32 v70,2013-01-06 04:43:00,
2013-01-05 23:48:00,19.0,19.0,30.29,South,180,0.0,4.0,100,0.00,,,0.01,Weather View 32 v70,2013-01-06 04:48:00,
2013-01-05 23:53:00,20.0,20.0,30.31,South,180,0.0,4.0,100,0.00,,,0.01,Weather View 32 v70,2013-01-06 04:53:00,
2013-01-05 23:58:00,20.0,20.0,30.31,South,180,0.0,4.0,100,0.00,,,0.00,Weather View 32 v70,2013-01-06 04:58:00,